FALCON 9 DEB (53873 NORAD) Tracking and Keplerian Element Data

This shows tracking and keplerian element data for the satellite.

Feedback or suggestion? Click here.




ElementValue
Catalog53873
NameFALCON 9 DEB
Epoch Orbit369
Epoch Day278.10980133
Epoch Year2022
RAAN176.1389
Inclination53.1982
Eccentricity0.0018345
Argument of Perigee115.6633
Mean Anonmoly244.631
Mean Motion16.34552109
Decay Rate0.05698875
L11 53873U 22114BH 22278.10980133 .05698875 12131-4 72179-3 0 9991
L22 53873 53.1982 176.1389 0018345 115.6633 244.6310 16.34552109 3691



Live tracking and technical data element details for FALCON 9 DEB (NORAD 53873). FALCON 9 DEB can be tracked NOW for your location showing map with azimuth and elevation plus other details from your city location.







IsCatalogInMostPopularTable: catalog: 53873, numindb: -1

Insert: records affected: 1


GetName: 53873 FALCON 9 DEB

Hit Count: inserted at: Thu, 08 Dec 2022 10:22:08 GMT